Hourly Data Report for October 13, 2013

All times are specified in Local Standard Time (LST). Add 1 hour to adjust for Daylight Saving Time where and when it is observed.

CHARLOTTETOWN A
PRINCE EDWARD ISLAND

46°17'21.000" N
63°07'09.000" W
48.50 m
8300301
71706
YYG

Download Data

Hourly Data (October 2013)
Hourly Data Report for October 13, 2013
Temp Definition
°C
Dew Point Temp Definition
°C
Rel Hum Definition
%
Wind Dir Definition
10's deg

Wind Spd Definition
km/h
Visibility Definition
km
Stn Press Definition
kPa
Hmdx Definition


Wind Chill Definition


Weather Definition


TIME
00:00 Legend Double Dagger -0.9 -1.3 97 31 5 24.1 102.46   -3 LegendNANA
01:00 Legend Double Dagger -0.9 -1.5 96 32 5 24.1 102.47   -3 LegendNANA
02:00 Legend Double Dagger -1.2 -1.8 96 33 5 24.1 102.48   -3 Mostly Cloudy
03:00 Legend Double Dagger 2.5 0.9 89 30 7 24.1 102.46     LegendNANA
04:00 Legend Double Dagger 2.4 0.8 89 30 8 24.1 102.47     LegendNANA
05:00 Legend Double Dagger 3.3 1.0 85 31 7 24.1 102.48     Mostly Cloudy
06:00 Legend Double Dagger 3.9 1.3 83 30 5 24.1 102.49     LegendNANA
07:00 Legend Double Dagger 4.2 1.4 82 32 5 24.1 102.51     LegendNANA
08:00 Legend Double Dagger 6.1 2.0 75 35 7 24.1 102.52     Mainly Clear
09:00 Legend Double Dagger 7.6 2.5 70 1 12 24.1 102.54     LegendNANA
10:00 Legend Double Dagger 7.7 1.6 65 2 17 24.1 102.54     LegendNANA
11:00 Legend Double Dagger 8.9 1.8 61 33 10 24.1 102.53     Mainly Clear
12:00 Legend Double Dagger 9.4 2.3 61 34 11 24.1 102.48     LegendNANA
13:00 Legend Double Dagger 9.8 2.0 58 35 15 24.1 102.42     LegendNANA
14:00 Legend Double Dagger 10.3 3.2 61 35 6 24.1 102.39     Mostly Cloudy
15:00 Legend Double Dagger 9.9 2.8 61 30 10 24.1 102.39     LegendNANA
16:00 Legend Double Dagger 8.9 2.5 64 35 13 24.1 102.37     LegendNANA
17:00 Legend Double Dagger 7.5 2.4 70 36 8 24.1 102.34     Mostly Cloudy
18:00 Legend Double Dagger 4.4 2.4 87 3 3 24.1 102.32     LegendNANA
19:00 Legend Double Dagger 2.4 1.5 94 32 1 24.1 102.31     LegendNANA
20:00 Legend Double Dagger 2.2 1.0 92 25 5 24.1 102.29     Mainly Clear
21:00 Legend Double Dagger 1.3 0.7 96 26 6 24.1 102.29     LegendNANA
22:00 Legend Double Dagger 1.1 0.8 98 26 4 24.1 102.24     LegendNANA
23:00 Legend Double Dagger 0.9 0.5 97 25 6 24.1 102.25     Mainly Clear

Notes on Data Quality.

Legend

  • E = Estimated
  • M = Missing
  • NA = Not Available
  • ‡ = Partner data that is not subject to review by the National Climate Archives
Date modified: